[[{"header":{"parameterUnit":"m.s-1","parameterCategory":1,"la1":30.2991,"la2":30.254,"lo1":-89.0895,"lo2":-89.0444,"dy":0.0017,"dx":0.0017,"nx":28,"ny":28,"refTime":"2025-07-29T03:00:00:Z","depth":0,"parameterNumber":2,"parameterNumberName":"U-component_of_WINDS"},"data":[0,0,0,0,0,0,0,0,0,0,0,0,0,0,0,0,0,0,0,0,0,0,0,0,0,0,0,0,0,0,0,0,0,0,0,0,0,0,0,0,0,0,0,0,0,0,0,0,0,0,0,0,0,0,0,0,0,0,1.4868,1.4868,0,1.4884,1.4885,1.4885,1.4902,1.4902,1.4902,1.4902,1.4916,1.4917,1.4917,0,0,0,0,0,0,0,0,0,0,0,0,0,1.4852,1.4852,1.4868,1.4868,1.4869,1.4884,1.4885,1.4885,1.4902,1.4902,1.4902,1.4903,1.4916,1.4917,1.4917,0,0,0,0,0,0,0,0,0,0,0,0,0,1.4862,1.4852,1.4868,1.4879,1.488,1.4884,1.4885,1.4885,1.4902,1.4902,1.4902,1.4903,1.4916,1.4917,1.4917,1.4911,0,0,1.4917,1.4917,0,0,0,0,0,0,0,0,1.4862,1.4863,1.4877,1.4878,1.488,1.4891,1.4884,1.4893,1.4901,1.4893,1.4902,1.4903,1.4908,1.4909,1.4911,1.4911,1.4912,1.4917,1.4918,1.4918,1.4918,0,0,0,0,0,0,0,1.4861,1.4862,1.4874,1.4877,1.4879,1.4883,1.4885,1.4886,1.4898,1.4894,1.4895,1.4897,1.4908,1.491,1.4911,1.4912,1.4917,1.4918,1.4918,1.4918,1.4911,1.4911,0,0,0,0,0,0,1.4859,1.4861,1.4874,1.4875,1.4871,1.4883,1.4885,1.4887,1.4898,1.49,1.4897,1.4898,1.491,1.4911,1.4912,1.4907,1.4918,1.4918,1.4918,1.4912,1.4911,1.4911,0,0,0,0,0,0,1.4858,1.486,1.4873,1.4869,1.4871,1.4883,1.4885,1.4887,1.4889,1.49,1.4902,1.4897,1.491,1.4911,1.4912,1.4907,1.4918,1.4918,1.4912,1.4912,1.4911,1.4896,0,0,0,0,0,0,1.4858,1.4859,1.4857,1.4869,1.4871,1.4873,1.4885,1.4887,1.489,1.4892,1.4901,1.4903,1.4911,1.4911,1.4912,1.4908,1.4918,1.4912,1.4912,1.4911,1.4897,1.4895,1.4893,0,0,0,0,0,1.4857,1.4851,1.4857,1.4858,1.4868,1.4872,1.4874,1.4884,1.489,1.4888,1.4895,1.4902,1.4908,1.4911,1.4912,1.4908,1.4913,1.4912,1.4911,1.4897,1.4895,1.4893,0,0,0,0,0,0,1.4837,1.4852,1.4859,1.4856,1.4863,1.4875,1.4873,1.4881,1.4885,1.4886,1.4898,1.49,1.4899,1.4904,1.4907,1.4904,1.4912,1.4911,1.4901,1.4899,1.4897,1.4895,1.4918,0,0,0,0,0,1.4832,1.4835,1.4848,1.4845,1.4848,1.486,1.4862,1.487,1.4877,1.4879,1.4886,1.4893,1.4896,1.4898,1.4901,1.4898,1.4901,1.4896,1.4894,1.4893,1.4892,1.4892,1.4891,1.4909,1.4909,1.4909,0,0,1.4822,1.4831,1.4832,1.4841,1.4847,1.4849,1.4862,1.4863,1.4865,1.4879,1.488,1.4886,1.4894,1.4893,1.4893,1.4897,1.4888,1.4892,1.4891,1.4891,1.4891,1.489,1.4888,1.4908,1.4908,1.4908,0,0,1.4805,1.4812,1.4811,1.4817,1.4827,1.4836,1.4836,1.4848,1.4853,1.4854,1.4865,1.4868,1.4873,1.4879,1.4882,1.4872,1.4879,1.4873,1.4863,1.4864,1.4862,1.4861,1.4858,1.4856,1.4872,1.4872,1.4872,0,1.4791,1.4795,1.4809,1.481,1.4815,1.483,1.4829,1.4834,1.4844,1.4847,1.4852,1.4861,1.4867,1.4868,1.4866,1.4868,1.4869,1.4871,1.4861,1.486,1.4859,1.4857,1.4855,1.4871,1.4871,1.4871,1.4871,0,1.4778,1.4781,1.4779,1.479,1.4795,1.4795,1.4809,1.4811,1.482,1.4828,1.4831,1.4839,1.4846,1.4847,1.4854,1.485,1.4853,1.4859,1.4867,1.4857,1.4854,1.4853,1.487,1.487,1.4871,1.4871,0,0,1.4745,1.4767,1.4766,1.4772,1.4786,1.4789,1.4791,1.4799,1.4801,1.4809,1.4811,1.4817,1.4824,1.4828,1.4837,1.4837,1.483,1.4844,1.4845,1.4841,1.4827,1.4822,1.482,1.4835,1.4835,1.4835,1.4827,0,1.473,1.4735,1.4749,1.4749,1.4753,1.4769,1.4771,1.478,1.4789,1.4794,1.4803,1.4807,1.4816,1.4819,1.4821,1.483,1.4827,1.4831,1.4837,1.4837,1.4834,1.4819,1.4812,1.4803,1.4826,1.4826,1.4825,0,1.4712,1.4721,1.4722,1.4739,1.4741,1.4742,1.4752,1.4756,1.4768,1.4774,1.4781,1.4791,1.4795,1.4804,1.4809,1.4812,1.4816,1.4821,1.4821,1.4821,1.483,1.4818,1.4801,1.4799,1.4824,1.4824,1.4824,0,1.4688,1.47,1.4703,1.4708,1.4727,1.4728,1.4736,1.4748,1.4753,1.4762,1.4765,1.4774,1.4779,1.4786,1.4798,1.4803,1.4803,1.4812,1.4809,1.4809,1.4807,1.4806,1.4789,1.481,1.481,1.481,1.481,0,1.4669,1.4669,1.4693,1.4695,1.4696,1.4713,1.4714,1.4723,1.4735,1.4739,1.4754,1.4757,1.4774,1.478,1.4791,1.4795,1.4796,1.4802,1.4805,1.48,1.48,1.4802,1.4803,1.481,1.481,1.481,1.481,0,1.4641,1.4657,1.4662,1.4681,1.4686,1.4686,1.4703,1.4705,1.4717,1.4722,1.4724,1.4742,1.475,1.4764,1.4775,1.4783,1.4785,1.4789,1.4781,1.4782,1.4778,1.4778,1.4761,1.476,1.4782,1.4782,1.4782,0,1.4628,1.4629,1.4649,1.4654,1.4662,1.4668,1.4675,1.4692,1.4698,1.4713,1.4714,1.4724,1.4732,1.4745,1.4758,1.4768,1.4773,1.4766,1.4774,1.4771,1.4773,1.4772,1.4773,1.4764,1.4764,1.4763,1.4763,0,1.4601,1.461,1.4619,1.4631,1.4638,1.4648,1.4659,1.4662,1.4682,1.4688,1.4698,1.4704,1.4718,1.4728,1.474,1.4749,1.4759,1.4761,1.4761,1.4756,1.4751,1.4754,1.4776,1.4761,1.4761,1.4761,1.4761,1.4761,1.458,1.4583,1.4598,1.4608,1.4619,1.4629,1.4634,1.4647,1.4656,1.4669,1.4679,1.4688,1.4702,1.4721,1.4729,1.4736,1.4741,1.474,1.474,1.474,1.4738,1.4751,1.4739,1.4739,1.4739,1.4739,1.4739,0,1.4555,1.4567,1.4576,1.4592,1.46,1.4612,1.4626,1.4631,1.464,1.4653,1.4662,1.4674,1.4685,1.4701,1.4713,1.4716,1.4721,1.4718,1.4718,1.472,1.4733,1.4732,1.4714,1.4714,1.4714,1.4714,1.4714,1.4714,1.4542,1.4548,1.4559,1.4571,1.4583,1.4593,1.46,1.461,1.4621,1.4635,1.4644,1.4655,1.467,1.4684,1.4695,1.4699,1.4703,1.4698,1.4704,1.4716,1.4718,1.4721,1.472,1.4699,1.4699,1.469,1.469,1.469]},{"header":{"parameterUnit":"m.s-1","parameterCategory":1,"la1":30.2991,"la2":30.254,"lo1":-89.0895,"lo2":-89.0444,"dy":0.0017,"dx":0.0017,"nx":28,"ny":28,"refTime":"2025-07-29T03:00:00:Z","depth":0,"parameterNumber":3,"parameterNumberName":"V-component_of_WINDS"},"data":[0,0,0,0,0,0,0,0,0,0,0,0,0,0,0,0,0,0,0,0,0,0,0,0,0,0,0,0,0,0,0,0,0,0,0,0,0,0,0,0,0,0,0,0,0,0,0,0,0,0,0,0,0,0,0,0,0,0,-3.7333,-3.7331,0,-3.7196,-3.7194,-3.7192,-3.7127,-3.7127,-3.7127,-3.7127,-3.6979,-3.6976,-3.6972,0,0,0,0,0,0,0,0,0,0,0,0,0,-3.753,-3.7527,-3.7333,-3.7331,-3.7329,-3.7196,-3.7194,-3.7192,-3.7127,-3.7127,-3.7127,-3.7127,-3.6981,-3.6976,-3.6971,0,0,0,0,0,0,0,0,0,0,0,0,0,-3.7424,-3.7526,-3.7333,-3.7281,-3.7275,-3.7196,-3.7194,-3.7192,-3.7127,-3.7127,-3.7127,-3.7127,-3.6982,-3.6977,-3.6971,-3.6931,0,0,-3.6952,-3.695,0,0,0,0,0,0,0,0,-3.743,-3.7417,-3.729,-3.7285,-3.7278,-3.7179,-3.7209,-3.7104,-3.7127,-3.7183,-3.7127,-3.7128,-3.7045,-3.7034,-3.7008,-3.6924,-3.6918,-3.6952,-3.6948,-3.6945,-3.6944,0,0,0,0,0,0,0,-3.7437,-3.7422,-3.7278,-3.7289,-3.7281,-3.7262,-3.7247,-3.7189,-3.7115,-3.7178,-3.7173,-3.7158,-3.7042,-3.7014,-3.7004,-3.6915,-3.6952,-3.6946,-3.6943,-3.694,-3.6791,-3.679,0,0,0,0,0,0,-3.7454,-3.7429,-3.7283,-3.7274,-3.7356,-3.7258,-3.7242,-3.721,-3.7115,-3.7101,-3.7158,-3.7156,-3.7024,-3.7011,-3.6998,-3.6945,-3.6945,-3.694,-3.6936,-3.6791,-3.6791,-3.679,0,0,0,0,0,0,-3.7459,-3.7442,-3.7288,-3.735,-3.7329,-3.7255,-3.722,-3.7207,-3.718,-3.71,-3.7086,-3.7144,-3.7024,-3.7007,-3.6948,-3.6939,-3.6937,-3.6932,-3.6792,-3.6791,-3.679,-3.6839,0,0,0,0,0,0,-3.7465,-3.7444,-3.743,-3.735,-3.7326,-3.7243,-3.722,-3.7205,-3.717,-3.7166,-3.7083,-3.7069,-3.7022,-3.6958,-3.6942,-3.6931,-3.6927,-3.6792,-3.6791,-3.6791,-3.6838,-3.684,-3.6842,0,0,0,0,0,-3.7472,-3.7447,-3.743,-3.7412,-3.7307,-3.7243,-3.7228,-3.7177,-3.717,-3.7154,-3.7103,-3.7072,-3.6943,-3.6952,-3.6934,-3.6921,-3.6792,-3.6791,-3.6791,-3.6837,-3.6839,-3.6842,0,0,0,0,0,0,-3.7525,-3.7436,-3.7415,-3.7365,-3.7312,-3.7232,-3.721,-3.7182,-3.7128,-3.7125,-3.7061,-3.7043,-3.699,-3.6949,-3.6962,-3.6877,-3.6864,-3.686,-3.6906,-3.6907,-3.691,-3.692,-3.6922,0,0,0,0,0,-3.7532,-3.7489,-3.7412,-3.7375,-3.735,-3.7285,-3.7254,-3.722,-3.7161,-3.7138,-3.7083,-3.7025,-3.6971,-3.6937,-3.6883,-3.6832,-3.6812,-3.6813,-3.6815,-3.6817,-3.6814,-3.6783,-3.6782,-3.6788,-3.6788,-3.6788,0,0,-3.7543,-3.7489,-3.7466,-3.7384,-3.7339,-3.7294,-3.7266,-3.722,-3.7185,-3.713,-3.7072,-3.703,-3.6961,-3.6906,-3.6878,-3.687,-3.6808,-3.6816,-3.6819,-3.6814,-3.6782,-3.6781,-3.6781,-3.6787,-3.6787,-3.6787,0,0,-3.7541,-3.7497,-3.7461,-3.7417,-3.735,-3.7307,-3.7299,-3.7223,-3.7193,-3.7135,-3.7092,-3.7049,-3.6958,-3.6911,-3.6875,-3.6855,-3.6824,-3.6839,-3.685,-3.682,-3.682,-3.6819,-3.6811,-3.6809,-3.6836,-3.6836,-3.6837,0,-3.7563,-3.7496,-3.7445,-3.7401,-3.7366,-3.7317,-3.7279,-3.7237,-3.7155,-3.7131,-3.7123,-3.7009,-3.6959,-3.6891,-3.6887,-3.686,-3.6846,-3.6848,-3.6825,-3.6823,-3.6822,-3.6813,-3.6811,-3.6839,-3.6838,-3.6838,-3.6838,0,-3.7526,-3.748,-3.7459,-3.7384,-3.7346,-3.7305,-3.7245,-3.7213,-3.7181,-3.7138,-3.7078,-3.7017,-3.695,-3.6931,-3.6899,-3.6859,-3.6856,-3.6837,-3.6823,-3.6824,-3.6815,-3.6812,-3.6842,-3.6841,-3.684,-3.684,0,0,-3.7553,-3.7452,-3.7445,-3.741,-3.7333,-3.7295,-3.7251,-3.7188,-3.7161,-3.7106,-3.7066,-3.699,-3.6973,-3.6932,-3.6894,-3.6868,-3.6855,-3.6852,-3.6849,-3.6854,-3.6806,-3.682,-3.6818,-3.6835,-3.6834,-3.6833,-3.6812,0,-3.754,-3.7463,-3.7415,-3.7355,-3.7311,-3.7264,-3.7225,-3.7173,-3.7131,-3.7086,-3.7038,-3.6986,-3.6967,-3.6942,-3.6915,-3.6863,-3.6845,-3.6864,-3.6795,-3.6793,-3.6813,-3.6813,-3.6828,-3.6811,-3.6808,-3.6807,-3.6807,0,-3.7515,-3.7464,-3.7401,-3.7329,-3.7308,-3.7275,-3.7213,-3.7171,-3.7109,-3.7081,-3.7036,-3.6998,-3.6947,-3.6938,-3.6866,-3.688,-3.6849,-3.6819,-3.6817,-3.6808,-3.68,-3.6803,-3.6804,-3.6801,-3.6801,-3.6801,-3.6802,0,-3.754,-3.7455,-3.7407,-3.7379,-3.7294,-3.7271,-3.7234,-3.7173,-3.7138,-3.7083,-3.7059,-3.6998,-3.6964,-3.6916,-3.6862,-3.6861,-3.6795,-3.6781,-3.6768,-3.6769,-3.6755,-3.6757,-3.675,-3.6737,-3.6737,-3.6737,-3.6737,0,-3.753,-3.7493,-3.7417,-3.7387,-3.7344,-3.7288,-3.7246,-3.7204,-3.715,-3.7109,-3.7064,-3.7026,-3.6956,-3.6909,-3.6866,-3.6812,-3.6797,-3.6771,-3.676,-3.6775,-3.6778,-3.6753,-3.6752,-3.6736,-3.6736,-3.6736,-3.6737,0,-3.7551,-3.7499,-3.7443,-3.7368,-3.7348,-3.7319,-3.7253,-3.7221,-3.7178,-3.7126,-3.7111,-3.7042,-3.6984,-3.6925,-3.6846,-3.6816,-3.6763,-3.6748,-3.6785,-3.6779,-3.6768,-3.677,-3.6745,-3.6738,-3.673,-3.6731,-3.6731,0,-3.7548,-3.7519,-3.7442,-3.7413,-3.7378,-3.7331,-3.7296,-3.7239,-3.7204,-3.7132,-3.7107,-3.7047,-3.6995,-3.6904,-3.6845,-3.6784,-3.6767,-3.6762,-3.6757,-3.6773,-3.6765,-3.6768,-3.6764,-3.6764,-3.6764,-3.6765,-3.6765,0,-3.7548,-3.7524,-3.7477,-3.7421,-3.7381,-3.7333,-3.7282,-3.726,-3.7194,-3.7156,-3.7098,-3.7058,-3.6978,-3.6918,-3.685,-3.6808,-3.6775,-3.6767,-3.6761,-3.6775,-3.6798,-3.6785,-3.679,-3.6768,-3.6767,-3.6767,-3.6767,-3.6767,-3.7556,-3.7528,-3.747,-3.7418,-3.7375,-3.733,-3.7296,-3.7249,-3.7201,-3.7134,-3.7102,-3.7043,-3.6981,-3.6887,-3.6846,-3.6797,-3.6788,-3.6779,-3.6776,-3.6775,-3.6778,-3.6807,-3.6785,-3.6784,-3.6784,-3.6784,-3.6784,0,-3.7554,-3.7514,-3.7468,-3.7401,-3.7359,-3.7335,-3.7278,-3.7244,-3.7194,-3.714,-3.7091,-3.7023,-3.6964,-3.6901,-3.6838,-3.6811,-3.6794,-3.6796,-3.6797,-3.6788,-3.679,-3.6802,-3.6811,-3.6811,-3.6811,-3.6811,-3.6811,-3.6811,-3.7547,-3.7499,-3.7468,-3.7396,-3.7355,-3.73,-3.727,-3.7226,-3.7183,-3.7111,-3.7063,-3.7023,-3.6964,-3.6896,-3.684,-3.6823,-3.6801,-3.6808,-3.6786,-3.6789,-3.6788,-3.6786,-3.6796,-3.6804,-3.6804,-3.6787,-3.6787,-3.6787]}]]